[[{"header":{"parameterUnit":"m.s-1","parameterCategory":1,"la1":30.2991,"la2":30.254,"lo1":-89.0895,"lo2":-89.0444,"dy":0.0017,"dx":0.0017,"nx":28,"ny":28,"refTime":"2025-06-14T09:00:00:Z","depth":0,"parameterNumber":2,"parameterNumberName":"U-component_of_WINDS"},"data":[0,0,0,0,0,0,0,0,0,0,0,0,0,0,0,0,0,0,0,0,0,0,0,0,0,0,0,0,0,0,0,0,0,0,0,0,0,0,0,0,0,0,0,0,0,0,0,0,0,0,0,0,0,0,0,0,0,0,-1.187,-1.187,0,-1.1826,-1.1826,-1.1825,-1.1816,-1.1817,-1.1817,-1.1817,-1.1769,-1.1767,-1.1766,0,0,0,0,0,0,0,0,0,0,0,0,0,-1.1943,-1.1941,-1.187,-1.187,-1.1869,-1.1826,-1.1826,-1.1825,-1.1816,-1.1817,-1.1817,-1.1817,-1.177,-1.1768,-1.1766,0,0,0,0,0,0,0,0,0,0,0,0,0,-1.1906,-1.1941,-1.187,-1.186,-1.1858,-1.1827,-1.1826,-1.1825,-1.1816,-1.1817,-1.1817,-1.1818,-1.177,-1.1768,-1.1765,-1.174,0,0,-1.1758,-1.1757,0,0,0,0,0,0,0,0,-1.1908,-1.1903,-1.1862,-1.186,-1.1859,-1.1827,-1.1834,-1.1797,-1.1816,-1.1832,-1.1817,-1.1818,-1.1788,-1.1784,-1.1775,-1.1738,-1.1736,-1.1758,-1.1756,-1.1755,-1.1755,0,0,0,0,0,0,0,-1.1911,-1.1905,-1.1853,-1.1861,-1.1859,-1.1856,-1.1851,-1.1827,-1.1807,-1.1831,-1.183,-1.1825,-1.1787,-1.1777,-1.1773,-1.1735,-1.1758,-1.1756,-1.1754,-1.1753,-1.1674,-1.1674,0,0,0,0,0,0,-1.1916,-1.1907,-1.1854,-1.1852,-1.1885,-1.1854,-1.1849,-1.1837,-1.1808,-1.1804,-1.1825,-1.1825,-1.1781,-1.1776,-1.1772,-1.1739,-1.1755,-1.1753,-1.1752,-1.1675,-1.1674,-1.1673,0,0,0,0,0,0,-1.1917,-1.1911,-1.1856,-1.1879,-1.1872,-1.1852,-1.1839,-1.1836,-1.1826,-1.1803,-1.1799,-1.1818,-1.1781,-1.1775,-1.1748,-1.1737,-1.1752,-1.175,-1.1676,-1.1675,-1.1674,-1.1675,0,0,0,0,0,0,-1.1919,-1.1912,-1.1903,-1.1879,-1.1871,-1.1834,-1.1838,-1.1834,-1.1822,-1.1822,-1.1796,-1.1792,-1.1781,-1.1752,-1.1746,-1.1734,-1.1748,-1.1677,-1.1675,-1.1674,-1.1675,-1.1674,-1.1672,0,0,0,0,0,-1.1922,-1.1905,-1.1903,-1.1896,-1.186,-1.1834,-1.1829,-1.1817,-1.1821,-1.1811,-1.1797,-1.1793,-1.174,-1.1749,-1.1742,-1.173,-1.1677,-1.1676,-1.1674,-1.1676,-1.1674,-1.1672,0,0,0,0,0,0,-1.1927,-1.1901,-1.1899,-1.1874,-1.1856,-1.1832,-1.182,-1.1816,-1.1796,-1.1796,-1.1782,-1.1776,-1.175,-1.1737,-1.1748,-1.1703,-1.1708,-1.1705,-1.1712,-1.171,-1.1709,-1.1712,-1.1746,0,0,0,0,0,-1.1925,-1.1908,-1.1886,-1.1865,-1.1857,-1.184,-1.1828,-1.1821,-1.1802,-1.1794,-1.1777,-1.1758,-1.1736,-1.1723,-1.1702,-1.1674,-1.1667,-1.1662,-1.166,-1.1659,-1.1656,-1.1639,-1.1636,-1.1669,-1.1669,-1.1669,0,0,-1.1921,-1.1905,-1.1895,-1.1866,-1.1852,-1.1832,-1.1834,-1.1814,-1.1798,-1.179,-1.1764,-1.1751,-1.1728,-1.17,-1.1687,-1.1689,-1.1646,-1.1657,-1.1657,-1.1654,-1.1637,-1.1634,-1.1631,-1.1668,-1.1668,-1.1668,0,0,-1.1904,-1.1891,-1.1872,-1.1857,-1.1835,-1.1824,-1.1819,-1.1796,-1.1787,-1.1761,-1.1754,-1.1735,-1.1699,-1.1683,-1.167,-1.1645,-1.164,-1.1639,-1.163,-1.1613,-1.161,-1.1608,-1.1597,-1.1594,-1.1636,-1.1636,-1.1636,0,-1.1902,-1.1873,-1.1862,-1.1842,-1.1829,-1.1821,-1.1801,-1.1787,-1.1759,-1.1749,-1.1752,-1.1706,-1.169,-1.1657,-1.1651,-1.1642,-1.1634,-1.1641,-1.1612,-1.1609,-1.1607,-1.1597,-1.1593,-1.1636,-1.1636,-1.1636,-1.1636,0,-1.187,-1.185,-1.1837,-1.1811,-1.1797,-1.1776,-1.1761,-1.1747,-1.1741,-1.1729,-1.17,-1.1681,-1.1656,-1.1648,-1.1641,-1.1613,-1.1615,-1.1615,-1.162,-1.1604,-1.1594,-1.159,-1.1636,-1.1636,-1.1636,-1.1636,0,0,-1.1855,-1.1823,-1.1818,-1.1805,-1.178,-1.1764,-1.1742,-1.1718,-1.1706,-1.1687,-1.1667,-1.1637,-1.1636,-1.1621,-1.1613,-1.1598,-1.1577,-1.16,-1.1599,-1.1595,-1.1543,-1.1543,-1.1538,-1.1574,-1.1574,-1.1573,-1.1545,0,-1.1834,-1.1796,-1.1785,-1.1753,-1.1734,-1.1726,-1.1707,-1.1688,-1.1676,-1.1657,-1.1643,-1.1621,-1.1623,-1.1614,-1.1599,-1.1583,-1.1567,-1.1585,-1.1554,-1.1553,-1.1559,-1.1533,-1.1533,-1.1507,-1.1541,-1.154,-1.154,0,-1.1804,-1.1784,-1.1751,-1.1727,-1.1718,-1.1701,-1.1677,-1.166,-1.1638,-1.163,-1.1613,-1.1605,-1.1581,-1.1588,-1.1553,-1.1566,-1.1552,-1.1543,-1.1541,-1.1537,-1.1545,-1.1527,-1.1499,-1.1494,-1.1534,-1.1534,-1.1535,0,-1.1794,-1.176,-1.1734,-1.1724,-1.1696,-1.1684,-1.1672,-1.1651,-1.1636,-1.1615,-1.1605,-1.1581,-1.1568,-1.1548,-1.1534,-1.154,-1.1499,-1.1506,-1.1491,-1.1491,-1.1481,-1.1482,-1.1449,-1.1475,-1.1475,-1.1475,-1.1475,0,-1.1771,-1.175,-1.173,-1.1714,-1.169,-1.1677,-1.1653,-1.164,-1.1621,-1.1601,-1.1593,-1.1575,-1.1557,-1.1536,-1.1524,-1.1496,-1.149,-1.1482,-1.1479,-1.1482,-1.1483,-1.1472,-1.1473,-1.1474,-1.1475,-1.1475,-1.1475,0,-1.1756,-1.1742,-1.1713,-1.1689,-1.1682,-1.1665,-1.1644,-1.1627,-1.1615,-1.159,-1.1583,-1.1563,-1.1537,-1.1521,-1.1489,-1.1481,-1.1449,-1.1447,-1.1457,-1.1455,-1.144,-1.1441,-1.1399,-1.1391,-1.1424,-1.1423,-1.1423,0,-1.1741,-1.1725,-1.1699,-1.1686,-1.1673,-1.1652,-1.1637,-1.1623,-1.1608,-1.1581,-1.1567,-1.1542,-1.152,-1.1479,-1.1461,-1.1435,-1.1432,-1.1419,-1.1428,-1.1431,-1.143,-1.143,-1.1428,-1.1417,-1.1416,-1.1416,-1.1416,0,-1.1717,-1.171,-1.169,-1.1666,-1.1649,-1.163,-1.161,-1.16,-1.1582,-1.1565,-1.1539,-1.1522,-1.1489,-1.1463,-1.1435,-1.1421,-1.1415,-1.1413,-1.1408,-1.1411,-1.1416,-1.1411,-1.1451,-1.1414,-1.1414,-1.1415,-1.1415,-1.1415,-1.17,-1.1685,-1.1664,-1.1641,-1.1625,-1.1606,-1.1589,-1.1575,-1.1553,-1.1525,-1.1518,-1.149,-1.1467,-1.143,-1.1415,-1.1392,-1.1394,-1.1387,-1.1385,-1.1383,-1.1382,-1.1421,-1.1387,-1.1387,-1.1387,-1.1387,-1.1387,0,-1.1674,-1.166,-1.1639,-1.1612,-1.1593,-1.159,-1.1568,-1.1552,-1.1529,-1.1508,-1.1487,-1.1456,-1.143,-1.141,-1.1383,-1.1368,-1.1364,-1.1361,-1.1361,-1.1358,-1.1383,-1.1389,-1.1365,-1.1365,-1.1365,-1.1365,-1.1365,-1.1365,-1.1658,-1.1631,-1.1622,-1.1586,-1.1572,-1.1545,-1.1533,-1.1515,-1.1498,-1.1465,-1.1443,-1.143,-1.1409,-1.138,-1.1356,-1.135,-1.134,-1.1337,-1.133,-1.1354,-1.1356,-1.1359,-1.1365,-1.1335,-1.1335,-1.1307,-1.1307,-1.1307]},{"header":{"parameterUnit":"m.s-1","parameterCategory":1,"la1":30.2991,"la2":30.254,"lo1":-89.0895,"lo2":-89.0444,"dy":0.0017,"dx":0.0017,"nx":28,"ny":28,"refTime":"2025-06-14T09:00:00:Z","depth":0,"parameterNumber":3,"parameterNumberName":"V-component_of_WINDS"},"data":[0,0,0,0,0,0,0,0,0,0,0,0,0,0,0,0,0,0,0,0,0,0,0,0,0,0,0,0,0,0,0,0,0,0,0,0,0,0,0,0,0,0,0,0,0,0,0,0,0,0,0,0,0,0,0,0,0,0,2.3268,2.3268,0,2.3326,2.3326,2.3327,2.3323,2.3323,2.3322,2.3321,2.338,2.3383,2.3385,0,0,0,0,0,0,0,0,0,0,0,0,0,2.3154,2.3156,2.3268,2.3268,2.3269,2.3326,2.3326,2.3327,2.3324,2.3323,2.3321,2.3321,2.338,2.3382,2.3385,0,0,0,0,0,0,0,0,0,0,0,0,0,2.3207,2.3157,2.3267,2.3274,2.3275,2.3325,2.3326,2.3327,2.3324,2.3322,2.3321,2.332,2.3379,2.3382,2.3386,2.3433,0,0,2.3396,2.3398,0,0,0,0,0,0,0,0,2.3204,2.3211,2.3272,2.3274,2.3275,2.3316,2.3308,2.3363,2.3324,2.3305,2.3321,2.3319,2.336,2.3365,2.3379,2.3436,2.3438,2.3397,2.3399,2.34,2.3401,0,0,0,0,0,0,0,2.32,2.3209,2.3291,2.3273,2.3275,2.3274,2.328,2.3319,2.3339,2.3307,2.3307,2.3314,2.336,2.3375,2.338,2.3439,2.3397,2.34,2.3402,2.3403,2.3539,2.3541,0,0,0,0,0,0,2.3195,2.3206,2.3289,2.3292,2.3236,2.3277,2.3284,2.3304,2.3339,2.3343,2.3315,2.3313,2.337,2.3376,2.3382,2.344,2.34,2.3404,2.3406,2.3538,2.3539,2.3541,0,0,0,0,0,0,2.3193,2.3203,2.3286,2.3249,2.326,2.3281,2.3303,2.3306,2.3321,2.3345,2.3348,2.3326,2.3369,2.3377,2.3421,2.3442,2.3405,2.3409,2.3536,2.3538,2.354,2.3556,0,0,0,0,0,0,2.3189,2.3202,2.322,2.3249,2.3262,2.3324,2.3304,2.3308,2.3327,2.3326,2.3356,2.336,2.3369,2.3415,2.3424,2.3446,2.3411,2.3534,2.3537,2.354,2.3554,2.3559,2.3563,0,0,0,0,0,2.3185,2.3222,2.3221,2.3231,2.3285,2.3325,2.3332,2.3341,2.3329,2.3347,2.3363,2.3359,2.3439,2.342,2.343,2.3453,2.3533,2.3536,2.3539,2.3552,2.3558,2.3563,0,0,0,0,0,0,2.3194,2.3226,2.3225,2.3272,2.3296,2.3324,2.3348,2.3347,2.3375,2.3373,2.3383,2.339,2.3434,2.3448,2.3426,2.3502,2.3484,2.349,2.349,2.3496,2.35,2.3496,2.3414,0,0,0,0,0,2.3201,2.3231,2.3258,2.3297,2.3309,2.3326,2.3344,2.3349,2.3374,2.3384,2.3403,2.3428,2.3458,2.3478,2.3508,2.3557,2.3563,2.3578,2.3582,2.3586,2.359,2.3617,2.3624,2.3552,2.3552,2.3552,0,0,2.3216,2.3238,2.3256,2.3299,2.3318,2.3349,2.3335,2.3368,2.3391,2.339,2.3432,2.3446,2.3475,2.3521,2.3543,2.3534,2.3612,2.359,2.3593,2.3595,2.3621,2.3628,2.3634,2.3554,2.3554,2.3553,0,0,2.326,2.3279,2.3314,2.3334,2.3363,2.3375,2.3383,2.3412,2.3422,2.3464,2.3464,2.3492,2.3544,2.3565,2.3582,2.3635,2.3633,2.3644,2.3667,2.3694,2.3699,2.3705,2.3723,2.373,2.3649,2.3649,2.3649,0,2.3275,2.3322,2.3332,2.3365,2.3384,2.3385,2.342,2.3439,2.3477,2.349,2.348,2.3547,2.3566,2.3617,2.363,2.3644,2.3654,2.364,2.3698,2.3703,2.3708,2.3726,2.3733,2.365,2.365,2.365,2.3649,0,2.3339,2.3372,2.3396,2.3432,2.3454,2.3489,2.3504,2.3525,2.3529,2.3542,2.3586,2.3609,2.3643,2.3656,2.366,2.3708,2.3703,2.3696,2.3678,2.3716,2.3733,2.374,2.3652,2.3651,2.3651,2.365,0,0,2.3388,2.343,2.3439,2.3456,2.3489,2.3514,2.3549,2.3583,2.3601,2.3627,2.3657,2.3702,2.3696,2.3715,2.3722,2.3745,2.3786,2.3735,2.3736,2.3744,2.3841,2.3845,2.3853,2.3785,2.3786,2.3787,2.3838,0,2.3435,2.3496,2.3507,2.356,2.3591,2.3592,2.3623,2.3647,2.366,2.3688,2.3703,2.3734,2.3724,2.3736,2.3759,2.3776,2.3805,2.3772,2.3812,2.3814,2.3804,2.3862,2.3866,2.3913,2.3845,2.3846,2.3847,0,2.3497,2.3525,2.3582,2.3611,2.3624,2.3651,2.3684,2.371,2.3738,2.3746,2.3768,2.3772,2.3809,2.3791,2.3842,2.3819,2.3837,2.3847,2.385,2.3853,2.3832,2.3866,2.3928,2.3935,2.3857,2.3857,2.3856,0,2.3526,2.3579,2.3619,2.3634,2.3669,2.3688,2.3704,2.373,2.375,2.3779,2.3792,2.3824,2.3842,2.3867,2.388,2.3866,2.393,2.3913,2.3938,2.3938,2.395,2.3949,2.4015,2.3963,2.3963,2.3963,2.3963,0,2.3577,2.3611,2.3633,2.3658,2.3697,2.3709,2.3748,2.3763,2.3787,2.3815,2.3819,2.3846,2.3862,2.3891,2.3902,2.3942,2.395,2.3958,2.396,2.3957,2.3956,2.3968,2.3964,2.3965,2.3964,2.3964,2.3963,0,2.3616,2.3632,2.3676,2.3707,2.3715,2.3743,2.3769,2.3793,2.3807,2.3843,2.3852,2.3874,2.3909,2.3925,2.3967,2.3974,2.402,2.4021,2.4011,2.4012,2.4035,2.4033,2.4111,2.4121,2.4063,2.4063,2.4064,0,2.3646,2.3673,2.3706,2.3726,2.3742,2.3773,2.3793,2.3807,2.3828,2.3862,2.3883,2.3918,2.3946,2.4002,2.4021,2.4054,2.4055,2.408,2.406,2.4056,2.4055,2.4053,2.4056,2.4083,2.4084,2.4084,2.4085,0,2.3698,2.3705,2.3735,2.3767,2.3792,2.3818,2.3844,2.3859,2.3877,2.3901,2.3937,2.3959,2.4003,2.4037,2.4072,2.4088,2.409,2.4091,2.4099,2.4095,2.4088,2.4092,2.402,2.4089,2.4089,2.4088,2.4088,2.4088,2.3734,2.3758,2.3785,2.3818,2.3839,2.3863,2.3888,2.3905,2.3935,2.3972,2.3978,2.4016,2.4044,2.409,2.4109,2.4139,2.4133,2.4143,2.4146,2.4148,2.4149,2.4085,2.4145,2.4145,2.4145,2.4145,2.4145,0,2.3786,2.3804,2.3834,2.387,2.3896,2.3896,2.3924,2.3946,2.3979,2.4005,2.4033,2.4075,2.4109,2.4132,2.4166,2.4186,2.4187,2.4194,2.4192,2.4196,2.4153,2.4143,2.4192,2.4192,2.4192,2.4192,2.4192,2.4192,2.3816,2.3856,2.3867,2.3918,2.3936,2.3973,2.3989,2.4012,2.4033,2.4078,2.4107,2.4122,2.4147,2.4183,2.4215,2.4221,2.4233,2.424,2.4246,2.4204,2.4199,2.4195,2.4185,2.4243,2.4243,2.4286,2.4287,2.4287]}]]